Temperature
18 18 17 17 17 17 17 17 16 16 16 16 16 15 15 15 15 15 15 15 15 15 14 14 14 14 13 13 14 14 14 14 14 14 14 14 14 14 14 13 13 13 13
19 18 17 18 17 17 17 17 16 16 16 16 15 15 15 15 15 15 15 15 14 14 14 14 14 14 13 14 14 14 14 14 14 13 13 13 13 13 13 13 13 13 13
19 18 17 18 17 17 17 17 17 16 16 16 15 15 15 15 15 15 14 14 14 14 14 13 13 14 14 14 14 14 13 13 13 13 13 13 13 13 13 13 13 13 13
19 18 18 18 18 18 17 17 17 17 16 16 16 16 15 15 15 15 14 14 14 13 13 13 13 13 14 14 14 13 13 13 13 13 13 13 13 13 13 13 13 13 13
19 19 18 18 18 18 18 18 18 17 17 16 16 16 16 16 15 15 15 14 14 13 13 13 13 13 14 14 14 13 13 13 13 13 13 13 13 13 13 13 13 13 13
19 19 18 18 18 18 18 18 18 18 17 17 17 16 16 16 16 16 15 14 14 13 13 13 13 14 14 14 14 13 13 13 13 13 13 13 13 13 13 13 13 13 13
19 18 18 18 18 18 18 19 18 18 18 17 17 17 16 16 16 16 15 15 14 14 14 14 14 14 14 14 14 13 13 13 13 13 13 12 12 13 13 13 13 13 13
19 18 17 17 18 18 18 19 19 18 18 18 17 17 16 16 16 16 15 15 14 14 14 14 14 14 14 14 14 13 13 13 13 13 12 12 12 12 12 12 12 12 12
19 18 17 17 17 18 18 18 19 19 18 18 17 17 16 16 16 16 15 15 14 14 14 14 14 14 14 14 13 13 13 13 13 12 12 12 12 12 12 12 12 12 12
18 18 18 17 17 17 18 18 18 18 18 18 17 17 16 16 16 16 15 15 15 14 14 14 14 14 14 13 13 13 13 13 13 12 12 12 12 12 12 11 12 11 11
17 17 17 17 17 17 17 18 18 18 18 18 17 17 16 16 16 15 15 15 15 14 14 14 14 14 13 13 13 13 13 13 12 12 12 12 12 11 11 11 11 11 11
17 17 17 17 17 17 17 17 17 18 18 17 17 17 16 16 15 15 15 15 14 14 14 14 14 13 13 13 13 13 13 13 12 12 12 11 11 11 11 11 10 10 10
18 18 17 17 17 17 17 17 17 17 17 17 17 16 16 16 15 15 15 14 14 14 14 14 13 13 13 13 13 13 13 12 12 12 12 11 11 10 10 10 10 10 9
19 18 18 17 17 17 17 17 17 17 17 17 16 16 16 15 15 15 14 14 14 14 14 13 13 13 13 13 13 12 12 12 12 12 11 11 10 10 10 9 9 9 9
19 18 18 17 17 17 16 16 16 17 17 16 16 16 15 15 15 14 14 14 14 13 13 13 13 13 13 13 12 12 12 12 12 12 11 11 10 10 9 9 9 8 8
18 18 18 18 17 17 17 16 16 16 16 16 16 15 15 15 15 14 14 13 13 13 13 13 13 13 13 12 12 12 12 12 12 11 11 10 10 9 9 9 8 8 8
18 18 18 18 18 17 17 16 16 16 16 15 15 15 15 14 14 14 13 13 13 13 13 13 12 12 12 12 12 12 12 12 12 11 11 10 9 9 8 8 8 8 8
18 18 18 18 17 17 17 16 16 16 15 15 15 15 14 14 14 13 13 13 13 13 13 12 12 12 12 12 12 12 12 12 11 11 10 10 9 9 8 8 8 7 7
19 19 18 18 17 17 17 17 16 16 15 15 15 14 14 14 13 13 13 13 13 12 12 12 12 12 12 12 12 12 12 11 11 10 10 9 8 8 8 7 7 7 6
19 19 18 18 18 18 17 17 16 16 15 15 15 14 14 14 13 13 13 13 13 12 12 12 12 12 12 12 12 12 11 11 10 10 9 8 8 7 7 7 6 6 6
18 18 18 18 18 18 17 16 16 16 15 15 15 14 14 14 13 13 13 13 12 12 12 12 12 12 12 12 12 11 11 10 10 9 9 8 7 7 6 6 6 5 5
18 18 18 18 18 18 17 17 17 17 16 16 15 15 14 14 13 13 13 13 12 12 12 12 12 12 12 12 11 11 11 10 9 9 8 7 7 6 6 5 5 5 4
17 17 18 18 18 18 18 17 17 16 16 15 15 15 14 14 13 13 13 13 13 12 12 12 12 12 11 11 11 11 11 10 9 8 8 7 6 6 5 5 4 4 4
17 17 17 17 17 17 17 17 17 16 16 16 16 15 15 14 14 13 13 13 12 12 12 12 12 11 11 11 11 10 10 9 9 8 7 6 6 5 5 4 4 4 3
16 17 17 17 17 17 17 17 17 17 17 16 16 15 15 14 14 13 13 12 12 12 12 11 11 11 11 11 10 10 9 8 8 7 7 6 5 5 4 4 4 3 3
16 16 16 16 16 16 16 16 16 16 16 16 16 15 15 14 14 13 12 12 12 11 11 11 11 10 10 10 10 9 8 8 7 6 5 5 5 5 4 4 3 3 2
Wind_Speed
9 13 21 20 20 19 19 19 19 20 20 20 19 18 16 15 13 12 10 9 8 8 9 10 12 13 14 13 13 12 11 11 11 10 8 7 7 8 8 9 8 7 8
12 17 21 21 20 20 19 20 20 20 20 19 18 17 16 14 13 12 10 9 9 9 10 12 13 14 14 13 12 11 10 9 8 7 5 4 4 6 7 7 6 5 6
16 17 20 21 21 20 20 20 20 20 19 19 18 16 15 14 12 11 10 10 11 11 12 14 15 14 14 12 11 10 8 7 6 5 3 3 2 4 6 5 5 4 4
17 18 19 21 21 21 20 20 20 20 19 18 17 16 15 13 13 12 11 12 12 13 14 14 14 13 12 11 9 8 7 6 7 6 4 5 2 5 6 5 3 3 3
14 17 19 22 21 21 20 20 20 19 19 18 17 16 15 14 13 12 12 12 12 12 13 13 13 12 11 9 8 6 6 7 7 6 6 6 3 5 6 5 4 3 3
12 16 20 22 21 21 20 20 19 19 19 18 17 16 15 14 13 13 12 11 11 11 12 11 11 10 9 7 6 5 6 7 7 7 8 6 3 6 6 6 6 5 5
13 15 19 21 21 20 20 20 19 19 19 18 17 16 15 14 14 13 12 11 11 11 11 10 10 9 7 6 4 4 6 8 8 8 7 5 5 8 9 9 9 9 10
17 15 17 20 20 20 20 20 19 19 19 18 17 16 16 15 14 13 12 11 11 10 10 9 9 7 6 4 3 4 6 7 7 7 7 7 7 8 9 10 11 11 12
15 13 13 17 18 19 19 19 19 19 19 18 17 17 16 15 14 13 12 11 10 10 9 8 8 6 5 3 3 5 6 7 7 6 7 7 8 10 11 11 12 13 14
13 13 11 14 15 15 16 18 18 19 18 18 18 18 17 16 15 13 12 11 10 9 8 8 7 5 4 3 4 6 7 9 9 8 6 7 9 10 11 12 12 12 13
13 12 11 10 12 14 15 16 17 17 18 18 18 19 17 15 14 13 12 11 10 9 8 7 6 4 2 2 5 7 9 9 10 8 6 9 11 12 12 12 11 11 12
16 14 12 12 11 13 14 14 14 14 15 15 16 17 15 14 13 12 13 12 11 9 8 6 5 3 2 4 6 9 10 11 10 8 8 11 12 12 12 11 11 11 11
17 15 14 13 12 12 9 11 11 11 12 14 16 16 15 13 12 11 11 11 10 8 6 4 4 3 4 5 7 9 10 11 10 9 10 12 11 11 11 11 11 10 10
17 18 16 15 13 12 11 10 10 9 10 10 14 16 13 8 7 8 8 9 9 7 5 4 4 5 5 6 8 9 10 10 10 10 11 12 11 11 10 10 10 9 9
17 18 18 17 16 13 10 9 10 9 11 13 14 16 15 8 5 7 7 9 8 8 6 5 5 5 6 7 7 8 8 9 10 11 12 13 12 10 9 9 9 9 9
15 17 17 18 18 16 14 12 9 11 13 14 14 15 17 13 9 7 6 6 7 8 8 7 6 6 5 5 6 7 7 9 10 11 11 12 11 10 8 8 8 9 9
13 15 17 19 18 18 16 14 11 12 13 12 13 17 18 16 14 10 6 5 8 10 10 8 7 6 4 4 4 4 5 7 8 10 11 11 10 9 7 7 7 8 9
11 13 16 17 18 18 17 15 10 12 12 11 14 16 18 18 17 12 7 6 10 12 9 5 5 4 4 4 3 2 3 5 7 9 9 10 9 8 6 5 6 7 9
12 13 15 16 18 19 17 14 11 10 11 11 13 14 17 18 18 13 8 8 12 9 5 6 4 3 3 3 2 2 2 2 4 7 7 8 8 7 6 4 4 5 7
10 12 14 16 17 17 13 10 9 9 9 9 10 12 16 16 17 14 9 10 11 7 6 5 5 4 3 2 2 3 2 1 2 4 5 7 7 6 6 4 3 2 5
9 11 13 15 15 14 12 12 11 11 10 9 8 12 15 16 17 13 9 9 8 8 8 8 5 5 3 2 3 2 3 2 1 1 2 3 3 4 4 3 1 2 5
10 10 12 14 15 16 15 14 11 10 7 7 7 9 14 15 16 14 12 11 9 8 9 7 5 4 3 2 3 3 1 2 2 1 0 2 1 3 2 1 2 4 6
9 10 11 12 14 15 14 8 6 5 4 3 5 7 8 13 15 14 13 11 10 9 9 8 7 7 4 2 2 3 4 4 2 2 2 2 2 1 1 3 5 8 9
10 9 10 11 12 13 13 13 15 12 10 9 8 6 7 9 12 14 14 12 11 8 9 8 6 5 6 4 2 3 2 3 2 2 3 2 2 1 2 3 7 10 10
7 7 7 8 10 11 13 16 18 13 9 6 7 9 8 7 8 11 13 11 11 9 9 8 7 6 4 5 4 3 3 3 2 2 3 4 3 3 3 4 6 7 9
5 5 5 6 9 10 13 15 17 15 13 13 12 11 9 7 7 9 11 10 10 9 9 9 7 8 5 6 5 3 3 3 2 2 3 3 4 4 3 4 3 4 6
Wind_Direction
156 160 152 147 142 138 136 135 134 131 129 126 123 121 118 116 114 112 110 110 115 126 131 129 126 123 117 108 100 94 90 88 85 81 75 70 70 77 75 69 67 63 73
147 155 151 148 143 140 137 136 134 132 131 129 127 125 124 123 122 118 111 108 114 122 127 127 125 120 115 109 101 96 92 88 82 77 78 78 69 74 78 76 70 68 71
145 151 150 147 144 141 139 138 137 136 135 133 131 129 128 126 125 121 113 108 110 112 118 119 118 115 112 108 103 98 90 79 67 60 97 132 106 80 83 85 77 71 65
146 148 150 148 146 144 143 143 142 141 139 137 135 132 130 129 128 124 118 115 111 108 110 112 112 114 112 108 103 96 80 58 45 53 100 144 137 79 77 78 66 58 43
143 146 152 149 148 147 146 147 146 145 143 141 138 135 132 131 130 127 122 119 115 111 113 114 113 114 113 109 102 88 62 40 39 59 119 143 129 75 70 63 53 44 26
137 144 153 151 150 149 148 148 148 147 146 143 140 138 136 135 134 130 127 126 123 119 120 119 118 116 114 110 99 76 49 41 52 82 119 127 103 74 68 64 54 44 36
140 146 156 153 153 152 152 152 151 150 148 146 145 142 140 138 137 137 136 135 131 127 126 125 123 120 117 109 93 62 45 49 65 93 107 102 83 73 67 61 56 54 53
147 151 158 156 155 155 156 155 155 154 153 151 150 147 144 143 143 144 145 142 138 135 132 129 128 126 120 108 80 50 45 60 78 90 92 84 79 73 68 66 63 60 58
149 152 156 158 158 159 159 159 159 158 158 158 156 152 149 149 150 151 152 150 145 142 141 138 136 132 128 109 66 41 48 77 97 100 91 82 80 79 76 71 67 63 60
153 157 156 158 159 160 163 163 163 162 162 162 159 154 154 156 158 159 160 158 154 153 151 148 145 141 133 99 58 53 71 86 96 96 91 88 86 84 79 73 66 62 61
163 164 162 159 160 161 165 169 167 166 167 165 161 159 161 163 165 167 169 168 164 164 163 160 155 152 139 64 55 71 86 96 98 93 89 95 92 87 81 72 68 64 61
174 175 171 168 166 165 171 170 170 171 171 168 166 166 167 169 171 174 177 176 175 174 173 169 160 150 127 74 71 84 97 101 95 87 92 97 93 89 82 75 68 62 56
178 179 180 177 173 172 172 169 174 174 174 175 175 176 174 174 178 178 178 181 181 179 175 162 136 122 116 102 91 96 105 102 95 88 92 95 95 93 86 77 68 59 50
179 185 183 182 179 179 176 177 180 179 182 185 187 184 178 179 181 181 181 182 181 178 169 154 132 121 110 105 105 105 109 111 105 96 94 97 97 94 88 78 66 54 43
184 187 186 185 183 182 179 182 185 188 190 194 195 194 188 183 182 183 187 183 183 178 166 150 135 118 105 96 95 103 112 119 116 107 102 101 99 96 87 74 60 46 34
192 190 187 188 187 184 185 187 187 192 194 197 201 199 194 190 185 182 179 176 178 174 163 148 135 117 102 96 84 93 112 126 126 121 114 109 107 102 90 72 55 40 28
199 194 191 191 189 188 189 190 190 192 194 198 203 202 195 191 184 180 173 172 172 163 145 126 116 105 92 84 78 84 107 131 137 136 129 123 117 110 98 78 54 38 25
202 198 197 196 192 192 192 192 192 192 193 197 198 199 194 189 182 174 169 169 160 149 138 127 121 98 84 83 79 66 96 129 145 149 146 143 138 129 116 94 62 37 21
208 201 200 199 194 195 194 192 191 188 192 193 191 192 191 186 178 169 164 157 150 140 134 133 113 115 105 96 99 92 97 129 147 156 161 166 163 153 139 114 81 44 17
220 207 203 202 198 196 193 188 186 187 191 188 188 186 182 180 173 163 156 153 147 138 134 128 118 93 99 109 86 68 51 95 135 155 168 173 176 168 156 135 105 40 5
230 217 207 204 201 193 189 189 189 194 193 190 189 182 178 173 169 161 156 153 151 150 149 138 121 108 83 80 95 58 19 28 84 134 159 162 170 164 153 142 130 334 334
234 225 216 208 203 197 197 195 193 189 187 185 181 180 178 172 169 165 159 161 155 145 144 147 136 123 98 67 126 119 52 339 344 26 60 152 132 113 100 69 348 329 321
237 228 223 213 208 203 196 180 151 119 97 139 177 180 179 171 167 164 161 157 156 154 159 157 147 138 138 86 74 142 153 216 284 331 14 56 92 95 46 10 351 335 328
241 233 226 218 210 203 192 179 174 180 183 188 180 168 160 163 162 160 158 155 155 152 153 154 147 140 135 138 104 68 103 137 154 297 325 356 11 55 5 348 336 330 337
250 241 234 225 213 203 195 189 189 189 178 153 147 149 151 152 154 155 154 151 151 149 147 140 137 130 129 142 143 129 103 79 96 155 277 315 328 314 314 309 315 327 346
277 261 245 229 221 208 199 193 194 184 161 154 159 162 157 151 149 152 150 149 146 145 143 138 133 128 124 124 122 124 136 140 149 162 225 275 289 289 292 291 295 319 347
Height
1510 1513 1516 1518 1519 1521 1523 1525 1526 1527 1528 1529 1531 1532 1532 1533 1533 1533 1533 1533 1533 1534 1534 1535 1535 1536 1537 1537 1537 1537 1537 1536 1536 1536 1536 1537 1537 1537 1537 1538 1538 1538 1539
1509 1512 1515 1517 1519 1521 1523 1524 1525 1527 1528 1529 1530 1530 1531 1531 1532 1532 1532 1532 1533 1533 1534 1534 1535 1536 1537 1538 1538 1537 1537 1537 1537 1537 1537 1537 1537 1537 1538 1538 1538 1539 1539
1510 1512 1515 1517 1519 1521 1522 1524 1525 1526 1527 1528 1529 1530 1530 1530 1530 1531 1531 1532 1533 1534 1534 1535 1536 1537 1538 1538 1538 1538 1538 1537 1537 1537 1538 1538 1538 1538 1538 1538 1539 1539 1539
1510 1512 1514 1516 1519 1520 1522 1523 1524 1525 1527 1528 1528 1529 1529 1530 1530 1530 1531 1532 1533 1534 1535 1536 1537 1538 1539 1539 1539 1539 1538 1538 1538 1538 1538 1538 1538 1539 1539 1539 1539 1539 1539
1510 1512 1514 1516 1518 1520 1521 1523 1524 1525 1526 1527 1528 1529 1529 1530 1530 1530 1531 1532 1533 1535 1536 1537 1538 1539 1539 1539 1539 1539 1539 1539 1539 1539 1539 1539 1539 1540 1540 1540 1540 1540 1540
1510 1512 1514 1516 1518 1520 1521 1522 1524 1525 1526 1527 1528 1529 1529 1530 1530 1531 1531 1533 1534 1535 1537 1538 1539 1539 1540 1540 1540 1540 1540 1540 1540 1540 1540 1540 1540 1541 1541 1540 1540 1540 1540
1509 1511 1514 1516 1518 1519 1521 1522 1523 1525 1526 1527 1528 1529 1530 1530 1531 1532 1532 1533 1535 1536 1538 1539 1539 1540 1540 1541 1541 1541 1541 1540 1541 1541 1541 1541 1541 1541 1541 1540 1540 1540 1539
1509 1511 1513 1516 1517 1519 1521 1522 1523 1524 1526 1527 1528 1529 1530 1531 1532 1533 1533 1534 1536 1537 1538 1539 1540 1541 1541 1541 1541 1541 1541 1541 1541 1541 1541 1541 1541 1541 1541 1540 1540 1539 1539
1509 1511 1513 1515 1517 1519 1520 1522 1523 1524 1525 1527 1528 1529 1530 1532 1533 1533 1534 1535 1536 1538 1539 1540 1540 1541 1541 1541 1541 1541 1541 1541 1541 1541 1541 1541 1541 1540 1540 1539 1539 1538 1538
1509 1511 1513 1514 1516 1518 1520 1521 1523 1524 1525 1526 1528 1529 1530 1532 1533 1534 1535 1536 1537 1538 1539 1540 1540 1541 1541 1541 1541 1541 1541 1541 1541 1541 1541 1540 1540 1539 1539 1538 1537 1537 1536
1508 1510 1512 1513 1515 1517 1519 1520 1522 1523 1525 1526 1527 1529 1530 1531 1533 1534 1535 1536 1537 1538 1539 1540 1540 1540 1541 1541 1541 1540 1540 1540 1540 1540 1540 1540 1539 1538 1537 1537 1536 1535 1534
1506 1508 1510 1512 1514 1516 1517 1519 1520 1522 1523 1525 1526 1528 1529 1531 1532 1533 1535 1536 1537 1538 1538 1539 1539 1540 1540 1540 1540 1540 1540 1540 1539 1539 1539 1538 1538 1536 1536 1535 1534 1533 1533
1504 1507 1508 1510 1512 1514 1515 1517 1519 1520 1522 1524 1525 1527 1528 1529 1531 1532 1533 1535 1536 1537 1538 1538 1539 1539 1539 1539 1539 1539 1539 1539 1538 1538 1538 1537 1536 1535 1534 1533 1532 1532 1531
1501 1504 1506 1508 1510 1511 1513 1515 1517 1518 1520 1521 1523 1525 1526 1527 1529 1531 1532 1534 1535 1536 1537 1537 1538 1538 1538 1538 1538 1538 1537 1537 1537 1537 1536 1535 1534 1533 1532 1531 1531 1530 1529
1498 1500 1503 1505 1507 1509 1510 1512 1514 1516 1518 1520 1521 1523 1524 1526 1528 1529 1531 1532 1534 1535 1536 1536 1537 1537 1537 1537 1537 1537 1536 1536 1535 1535 1534 1533 1533 1532 1531 1530 1529 1528 1528
1495 1497 1499 1501 1503 1505 1507 1509 1511 1513 1515 1517 1519 1520 1522 1524 1526 1527 1529 1531 1532 1534 1535 1535 1536 1536 1536 1536 1536 1535 1535 1534 1534 1533 1532 1532 1531 1530 1530 1529 1528 1527 1526
1492 1494 1496 1498 1500 1501 1503 1506 1508 1510 1512 1514 1516 1518 1520 1521 1523 1525 1527 1529 1530 1532 1533 1534 1534 1535 1535 1535 1535 1534 1533 1533 1532 1531 1531 1530 1530 1529 1528 1527 1526 1525 1524
1489 1491 1492 1494 1496 1497 1499 1502 1504 1507 1509 1511 1513 1515 1517 1519 1521 1523 1525 1527 1529 1530 1531 1532 1533 1533 1533 1533 1533 1532 1532 1531 1530 1529 1529 1529 1528 1527 1526 1526 1525 1523 1522
1484 1486 1488 1489 1491 1493 1496 1498 1501 1503 1505 1507 1510 1512 1514 1516 1518 1520 1522 1524 1526 1527 1529 1530 1531 1531 1532 1532 1531 1531 1530 1529 1528 1528 1527 1527 1526 1526 1524 1523 1522 1521 1519
1478 1480 1482 1484 1486 1489 1491 1494 1497 1499 1501 1503 1505 1507 1510 1512 1514 1517 1519 1521 1523 1525 1526 1527 1529 1529 1530 1530 1529 1529 1528 1527 1526 1525 1525 1525 1524 1523 1522 1521 1520 1518 1516
1471 1473 1475 1477 1480 1483 1485 1487 1490 1493 1495 1498 1501 1503 1506 1508 1511 1513 1515 1517 1519 1521 1523 1525 1526 1527 1527 1527 1527 1526 1525 1524 1524 1523 1523 1522 1522 1520 1519 1518 1516 1515 1513
1464 1467 1469 1470 1473 1475 1478 1480 1483 1486 1489 1493 1496 1499 1501 1503 1506 1508 1510 1513 1515 1518 1519 1521 1522 1523 1524 1524 1524 1523 1523 1523 1521 1520 1520 1519 1519 1518 1516 1515 1513 1511 1508
1458 1460 1462 1464 1466 1468 1471 1474 1477 1481 1483 1486 1489 1492 1495 1498 1500 1503 1506 1509 1511 1514 1515 1517 1519 1520 1520 1521 1520 1521 1519 1519 1519 1518 1516 1516 1515 1514 1513 1511 1509 1507 1504
1452 1454 1456 1457 1459 1461 1464 1466 1468 1471 1474 1477 1481 1485 1489 1492 1495 1498 1501 1504 1506 1509 1511 1513 1515 1516 1516 1516 1516 1516 1516 1516 1516 1514 1514 1512 1511 1511 1509 1508 1505 1503 1499
1447 1448 1449 1451 1452 1454 1456 1458 1461 1464 1467 1471 1475 1479 1482 1486 1489 1492 1496 1499 1501 1504 1507 1509 1510 1511 1512 1512 1512 1512 1512 1512 1511 1511 1509 1509 1508 1507 1505 1503 1500 1498 1494
1442 1443 1444 1445 1446 1448 1449 1451 1454 1457 1460 1464 1468 1472 1476 1480 1483 1487 1490 1493 1496 1499 1502 1504 1506 1507 1508 1508 1508 1508 1508 1507 1507 1506 1504 1502 1501 1500 1499 1497 1495 1492 1489